Weather History for Las Vegas, NM

Change the Weather History Date:

Wednesday, April 8, 2009

  Actual Average Record
Temperature  
Mean Temperature 52 °F -  
Max Temperature 69 °F 61 °F 75 °F (1963)
Min Temperature 37 °F 30 °F 7 °F (1973)
Degree Days  
Heating Degree Days 12    
Growing Degree Days 2 (Base 50)    
Moisture  
Dew Point 8 °F    
Average Humidity 16    
Maximum Humidity 32    
Minimum Humidity 7    
Precipitation  
Precipitation 0.00 in - - ()
Sea Level Pressure  
Sea Level Pressure 29.66 in    
Wind  
Wind Speed 14 mph (SW)    
Max Wind Speed 34 mph    
Max Gust Speed 47 mph    
Visibility 10 miles    
Events      
Averages and records for this station are not official NWS values.
T = Trace of Precipitation, MM = Missing Value Source: NWS Daily Summary

Daily Weather History Graph

Daily Weather History Graph

Search for Another Location

Airport:

Trip Planner

Search our weather history database for the weather conditions in past years. The results will help you decide how hot, cold, wet, or windy it might be!

Date:

Astronomy

Apr. 08, 2009 Rise Set
Actual Time 6:36 AM MDT 7:28 PM MDT
Civil Twilight 6:10 AM MDT 7:54 PM MDT
Nautical Twilight 5:40 AM MDT 8:25 PM MDT
Astronomical Twilight 5:08 AM MDT 8:56 PM MDT
Moon 6:54 PM MDT (4/8) 5:45 AM MDT (4/8)
Length of Visible Light 13h 43m
Length of Day
12h 51m
Waxing Gibbous, 99% of the Moon is Illuminated
Apr 8
Waxing Gibbous
Apr 9
Full
Apr 17
Last Quarter
Apr 24
New
May 1
First Quarter

Hourly Weather History & Observations

Time (MDT) Temp. Windchill Dew Point Humidity Pressure Visibility Wind Dir Wind Speed Gust Speed Precip Events Conditions
12:53 AM 42.1 °F 36.6 °F 3.9 °F 21% 29.89 in 10.0 mi South 9.2 mph - N/A   Clear
1:53 AM 39.9 °F 33.9 °F 5.0 °F 23% 29.87 in 10.0 mi South 9.2 mph - N/A   Clear
2:53 AM 45.0 °F 42.6 °F 6.1 °F 20% 29.82 in 10.0 mi SW 4.6 mph - N/A   Clear
3:53 AM 43.0 °F 38.2 °F 8.1 °F 24% 29.82 in 10.0 mi SW 8.1 mph - N/A   Clear
4:53 AM 46.9 °F - 7.0 °F 20% 29.80 in 10.0 mi SSW 5.8 mph - N/A   Clear
5:53 AM 39.9 °F - 7.0 °F 26% 29.82 in 10.0 mi Calm Calm - N/A   Clear
6:53 AM 37.9 °F 34.4 °F 10.0 °F 32% 29.83 in 10.0 mi South 4.6 mph - N/A   Clear
7:53 AM 45.0 °F 40.1 °F 12.0 °F 26% 29.83 in 10.0 mi SW 9.2 mph - N/A   Clear
8:53 AM 57.9 °F - 12.0 °F 16% 29.78 in 10.0 mi SW 15.0 mph - N/A   Clear
9:53 AM 62.1 °F - 12.9 °F 15% 29.75 in 10.0 mi SW 26.5 mph 32.2 mph N/A   Clear
10:53 AM 64.0 °F - 12.9 °F 14% 29.74 in 10.0 mi WSW 20.7 mph 34.5 mph N/A   Clear
11:53 AM 64.9 °F - 10.0 °F 12% 29.71 in 10.0 mi SW 28.8 mph 40.3 mph N/A   Clear
12:53 PM 66.0 °F - 14.0 °F 13% 29.70 in 10.0 mi WSW 21.9 mph 39.1 mph N/A   Clear
1:53 PM 66.0 °F - 16.0 °F 15% 29.66 in 10.0 mi West 24.2 mph 39.1 mph N/A   Clear
2:53 PM 66.9 °F - 17.1 °F 15% 29.59 in 10.0 mi WSW 24.2 mph 31.1 mph N/A   Clear
3:53 PM 66.9 °F - 18.0 °F 15% 29.55 in 10.0 mi SW 26.5 mph 43.7 mph N/A   Scattered Clouds
4:53 PM 68.0 °F - 16.0 °F 14% 29.47 in 10.0 mi SW 34.5 mph 46.0 mph N/A   Partly Cloudy
5:53 PM 66.9 °F - 10.0 °F 11% 29.47 in 10.0 mi SW 32.2 mph 47.2 mph N/A   Clear
6:53 PM 64.9 °F - 3.9 °F 9% 29.46 in 10.0 mi WSW 21.9 mph 29.9 mph N/A   Clear
7:53 PM 60.1 °F - 1.0 °F 9% 29.46 in 10.0 mi WSW 25.3 mph 34.5 mph N/A   Clear
8:53 PM 57.9 °F - -6.0 °F 7% 29.43 in 10.0 mi WSW 20.7 mph 34.5 mph N/A   Clear
9:53 PM 55.0 °F - -4.0 °F 9% 29.44 in 10.0 mi WSW 21.9 mph 31.1 mph N/A   Clear
10:53 PM 51.1 °F - 1.0 °F 13% 29.45 in 10.0 mi WSW 19.6 mph - N/A   Clear
11:53 PM 50.0 °F - 3.9 °F 15% 29.45 in 10.0 mi WSW 24.2 mph - N/A   Clear